Wind_Speed
31 30 29 28 27 26 26 25 24 22 21 19 17 16 14 14 13 13 12 12 11 11 10 9 8 7 6 5 4 5 6 7 9 9 13 19 23 24 22 22 22 22 21 20 21 22 21 21 20 21 23 23 22 22 22 22 24 26 23 18 20 22 23 23 24 24 24 24 24 25 25 25 24 25 25 24 24 25 25 26 27 28 28 29 30 30 31 33
30 29 28 28 27 26 25 23 22 20 19 17 16 15 15 14 14 13 13 13 12 11 10 9 8 7 6 7 7 8 10 12 14 17 22 25 24 23 22 21 21 21 20 20 21 21 19 18 19 21 23 21 20 21 21 21 22 23 20 17 18 20 20 20 21 22 22 22 22 23 23 22 23 23 23 23 24 25 26 28 29 29 30 31 31 32 33 33
29 29 28 27 27 25 23 21 20 19 18 17 16 16 16 16 15 15 14 13 12 11 10 9 9 8 8 9 10 13 15 16 21 25 26 25 22 21 21 20 20 20 19 20 20 20 18 17 18 21 22 20 18 19 19 20 21 19 18 15 15 17 18 18 18 19 19 20 19 20 21 21 21 22 23 23 24 25 27 28 29 30 31 31 32 33 33 33
29 29 27 26 25 23 21 19 19 18 18 18 17 18 18 17 16 15 15 14 12 11 10 10 10 10 11 14 16 18 19 21 26 28 24 23 22 20 19 20 20 19 18 19 20 18 15 15 17 20 20 17 15 17 17 18 19 17 16 14 13 14 15 15 15 16 16 16 17 18 19 19 20 21 21 22 23 24 26 27 28 29 30 32 32 33 33 33
28 27 25 24 22 21 20 19 19 19 19 19 19 19 18 17 16 15 14 13 12 11 11 12 12 14 17 20 21 22 23 25 28 26 23 22 21 19 18 19 20 19 18 18 18 15 13 13 15 18 18 14 13 15 14 14 16 16 13 11 11 11 12 12 12 13 13 13 15 16 16 18 19 19 20 21 22 24 25 26 27 28 30 32 32 33 33 33
25 24 23 22 21 20 20 20 20 20 20 20 19 18 17 16 16 14 13 12 11 12 13 15 17 20 22 24 26 26 26 27 27 24 22 21 19 18 18 18 20 20 19 18 17 15 13 12 13 15 14 10 11 13 11 11 13 15 11 9 9 8 9 9 9 10 10 11 13 14 15 17 17 18 19 20 22 23 24 25 26 28 29 31 31 32 33 34
22 22 22 21 21 21 21 21 21 21 20 19 18 17 16 15 14 13 12 12 13 15 17 20 23 24 24 25 28 29 26 25 24 23 21 20 18 18 17 18 20 20 20 18 16 16 15 13 13 14 13 10 11 11 10 10 11 13 10 8 8 6 6 6 6 7 8 10 12 13 14 16 16 17 18 19 20 21 23 24 26 28 29 30 30 31 33 34
21 21 21 21 22 21 21 21 21 20 19 18 17 15 15 14 14 13 13 14 16 19 21 23 25 27 26 24 26 29 26 22 22 22 21 19 17 18 18 19 19 19 19 18 16 16 16 17 15 15 16 13 12 11 10 11 10 11 9 7 7 5 5 5 4 5 7 9 11 12 13 15 16 17 18 19 20 20 22 23 25 27 29 30 30 31 32 33
21 21 21 22 22 21 21 20 19 18 17 16 15 15 15 14 13 14 15 16 19 22 23 24 25 27 27 24 25 26 24 21 20 21 20 18 17 17 17 19 19 17 18 17 16 15 17 19 17 16 17 14 12 12 11 12 11 9 8 6 6 5 4 4 5 6 7 9 11 13 14 15 16 17 18 19 20 21 22 23 25 27 28 29 29 31 32 32
21 21 21 21 21 21 20 19 18 17 16 15 14 14 14 14 13 14 16 18 21 24 25 25 24 25 25 24 24 24 22 20 19 19 19 18 17 15 16 18 18 17 16 15 14 14 17 18 16 16 16 14 13 13 12 12 11 9 9 7 6 6 6 6 6 8 9 11 13 14 16 17 17 18 19 20 21 21 22 23 24 25 27 28 29 30 31 32
21 20 20 20 19 19 18 16 15 14 14 13 12 12 12 12 12 14 18 21 23 24 26 27 25 23 22 22 23 22 20 19 18 18 18 17 16 15 16 17 16 16 15 14 13 14 16 15 15 15 14 13 13 12 12 12 11 10 10 8 8 8 8 9 9 10 12 13 14 16 17 18 18 19 20 21 22 22 23 24 24 25 26 27 28 29 30 31
19 19 18 18 17 17 16 14 13 13 12 11 11 11 11 12 14 18 21 23 24 24 25 26 25 23 20 20 22 20 18 18 17 17 17 16 15 14 15 15 15 15 13 12 12 13 14 13 13 13 13 12 11 11 11 11 11 11 10 10 10 10 11 11 12 13 14 15 16 17 18 19 19 20 21 22 23 24 24 25 25 26 26 26 27 28 29 30
18 17 17 16 16 15 14 13 12 13 13 13 13 13 15 17 20 23 24 24 24 24 23 23 23 22 20 20 20 18 17 16 16 16 16 15 14 13 14 13 13 13 12 11 11 12 12 12 12 12 12 11 11 11 10 11 11 11 11 11 12 12 13 13 14 15 16 16 17 18 19 20 21 21 22 23 24 25 25 25 26 26 27 26 26 26 27 28
16 15 15 14 14 13 12 12 12 13 14 15 16 18 21 23 24 24 24 24 24 23 22 22 21 20 19 19 19 17 16 15 15 15 14 13 13 13 13 12 12 12 11 10 10 11 11 12 12 11 11 11 10 10 10 10 11 11 12 12 13 14 14 15 16 16 17 18 18 19 19 20 21 22 22 23 23 24 25 25 26 26 27 26 26 26 26 27
14 13 13 12 12 11 12 13 14 15 16 18 20 23 24 25 24 24 24 24 23 23 22 21 20 18 19 18 16 15 15 14 14 13 13 12 12 12 12 12 11 11 10 10 10 10 11 12 12 11 11 10 10 10 10 11 12 12 12 13 14 14 15 15 16 16 17 18 18 19 19 20 20 21 21 22 23 23 24 25 26 26 26 26 26 25 25 26
12 12 11 11 11 12 14 16 17 18 19 22 24 25 25 24 23 23 23 23 22 21 21 20 18 17 18 17 15 14 14 13 13 13 12 12 11 11 11 11 11 10 9 9 9 10 10 11 11 10 10 10 10 10 10 11 12 12 12 13 14 14 15 16 16 16 17 17 18 18 18 19 19 20 20 21 22 23 24 24 25 25 25 25 25 24 24 24
11 10 10 10 12 15 18 19 20 21 23 24 25 25 25 24 23 22 22 22 21 20 19 19 17 15 16 16 14 14 13 13 13 12 11 11 10 10 10 10 10 9 9 9 9 9 9 9 10 9 9 9 9 9 10 11 11 11 12 13 14 15 15 15 16 16 16 17 17 17 18 18 19 20 20 21 22 23 24 25 25 24 24 24 23 23 23 23
10 10 10 12 15 19 21 21 22 24 25 25 25 24 24 23 22 22 21 20 20 19 17 17 16 15 15 14 13 13 13 12 12 12 11 10 10 9 9 9 9 8 8 8 9 9 8 9 9 9 8 8 7 8 9 10 11 11 13 13 14 15 15 15 15 16 16 17 17 18 18 19 19 20 21 21 22 23 24 25 25 25 24 23 22 21 21 21
10 11 12 15 20 22 23 23 24 25 25 25 24 23 22 22 21 20 20 19 18 17 15 15 14 14 14 13 13 13 13 12 12 11 11 10 10 9 9 9 9 8 8 8 8 8 7 8 8 8 7 6 7 9 10 11 11 12 13 15 15 15 16 16 16 16 17 17 18 18 19 19 20 20 21 21 22 23 24 25 25 25 24 22 21 21 20 19
12 13 16 20 24 24 24 25 25 25 24 23 23 22 21 20 20 19 19 18 17 16 14 13 14 14 13 13 13 14 13 12 12 11 11 11 11 11 11 10 9 9 8 8 8 7 7 8 8 6 5 6 7 9 10 11 12 13 14 15 15 15 15 16 15 16 17 18 18 19 19 20 20 21 21 21 22 23 23 24 24 25 24 22 21 21 20 19
15 17 21 24 25 25 26 26 25 24 23 22 21 21 20 18 18 17 17 17 16 15 14 13 13 13 13 13 13 14 13 12 12 12 11 11 11 11 10 9 9 8 8 8 7 6 7 7 6 4 5 7 9 9 10 11 12 14 14 15 15 15 15 16 15 16 17 17 17 18 19 21 21 21 22 22 22 23 23 23 23 24 24 24 24 23 22 21
19 22 25 26 26 26 26 26 25 23 21 21 20 20 19 18 17 15 15 16 15 14 13 13 13 13 13 12 13 13 13 12 12 11 11 10 10 10 9 8 8 7 7 7 6 6 5 4 3 4 6 7 8 9 10 11 13 14 14 15 15 15 15 15 16 16 17 18 17 17 19 21 21 21 22 22 22 23 22 21 21 23 25 26 25 25 24 23
23 26 26 26 26 26 25 25 24 22 21 20 19 19 18 17 16 14 13 15 14 13 13 12 12 13 12 12 13 13 12 12 11 11 10 10 9 9 8 8 8 7 7 6 5 4 2 3 5 6 7 7 8 9 10 11 12 13 14 14 14 14 14 14 16 17 17 18 18 17 18 20 20 20 21 21 22 23 22 20 21 23 25 25 25 25 24 24
26 26 27 27 26 25 24 23 23 22 21 20 19 18 17 16 16 13 12 13 12 12 12 12 12 12 12 13 12 12 11 11 10 10 9 9 9 8 8 7 6 5 5 5 3 2 3 6 7 7 7 8 9 9 10 11 12 13 13 14 14 14 13 13 15 17 17 18 18 17 18 20 20 20 20 20 21 22 20 19 20 21 22 23 23 24 24 23
26 26 27 27 26 25 23 22 21 21 20 19 18 17 16 16 15 13 11 11 11 11 11 12 12 12 13 13 12 12 11 10 10 9 9 9 8 8 7 6 5 4 4 4 3 4 6 7 7 7 8 8 8 9 10 11 11 12 13 13 14 14 14 13 14 16 17 17 17 17 18 19 20 20 20 20 20 20 18 17 18 18 20 21 22 22 22 22
26 26 26 25 24 23 22 20 19 19 18 18 17 16 15 15 14 13 11 11 11 11 11 12 12 12 13 12 12 11 10 9 9 9 9 8 8 7 6 5 5 4 4 4 4 6 7 7 7 7 7 7 8 9 10 11 11 13 13 13 13 14 13 13 13 14 16 16 16 17 17 18 19 20 20 19 19 18 16 15 16 16 18 19 20 21 21 21
26 25 24 23 22 21 20 19 18 17 17 16 16 15 15 14 13 12 11 11 12 12 12 12 12 13 12 12 11 11 10 10 9 8 7 7 7 6 5 5 4 4 4 5 5 6 6 6 7 7 7 8 9 10 11 11 11 12 13 13 13 13 13 14 14 13 15 15 15 16 16 17 18 20 20 19 18 17 14 13 14 15 16 17 18 19 19 19
24 23 22 21 20 19 18 17 16 16 16 15 15 14 14 13 12 12 12 12 13 13 13 13 13 13 12 12 11 10 9 9 8 6 5 5 5 5 4 4 4 4 5 5 5 5 6 6 7 7 7 8 9 10 11 11 12 13 13 14 14 14 13 14 14 12 13 14 14 15 15 16 17 19 19 18 17 16 13 12 13 15 15 16 16 17 18 19
22 21 20 19 18 17 17 16 15 15 15 15 14 13 13 12 12 12 12 12 12 12 13 12 12 12 11 11 10 9 7 7 6 4 3 4 4 3 3 4 4 4 4 4 4 4 5 6 7 7 7 8 9 10 11 11 12 13 13 14 14 14 14 14 13 11 12 13 14 15 16 17 18 20 20 19 17 17 14 12 12 13 14 15 15 16 17 18
20 19 18 17 16 16 15 15 14 14 14 13 13 12 12 11 11 11 11 12 11 11 12 11 11 11 10 9 8 6 4 4 3 2 2 3 2 2 3 4 3 3 3 4 4 5 6 6 6 7 7 8 9 10 11 12 12 13 14 15 15 15 14 13 12 11 12 14 15 16 17 19 21 22 23 21 18 17 14 12 11 12 13 14 15 15 16 18
17 16 16 15 15 14 14 13 13 13 12 12 12 11 11 10 10 10 10 10 10 10 10 9 9 8 7 6 5 3 2 2 2 1 2 2 2 3 4 3 2 3 3 4 5 5 6 6 6 6 7 8 9 11 11 12 13 14 15 15 15 14 14 12 12 12 13 14 16 17 19 21 23 24 24 23 20 18 15 12 11 12 13 14 15 16 18 20
15 15 14 13 13 13 13 12 12 11 11 11 10 10 9 9 9 9 9 9 9 9 8 8 7 6 5 4 3 1 1 1 1 2 3 3 3 3 3 3 3 3 4 4 5 5 5 5 6 7 8 9 10 11 12 13 14 15 15 15 15 14 13 12 11 12 13 15 17 18 20 22 24 24 25 24 21 19 17 14 13 12 12 14 15 17 20 21
13 13 12 12 12 12 12 11 10 10 9 9 8 9 8 8 8 9 8 8 8 8 7 6 6 5 4 3 2 1 1 1 2 2 3 3 3 3 3 3 4 4 4 5 5 5 5 6 6 7 7 9 10 11 13 14 15 15 15 15 13 11 10 10 11 13 15 17 18 19 21 23 24 25 26 25 23 20 19 17 16 15 15 15 17 18 20 21
12 11 11 11 11 11 10 10 9 8 8 8 8 8 8 8 8 8 8 8 8 7 7 6 5 4 3 3 2 1 1 1 2 2 3 3 3 3 4 4 4 5 5 5 6 6 6 6 6 6 7 8 10 12 13 14 15 15 14 13 12 11 11 12 13 15 16 17 18 20 22 23 24 25 26 26 24 22 21 20 18 18 18 19 20 21 20 21
11 10 10 10 10 9 9 8 8 8 8 8 8 8 8 8 8 8 8 8 8 7 7 6 5 4 3 3 2 2 2 2 2 3 3 3 3 3 4 4 4 5 5 5 6 6 6 6 5 5 6 8 10 11 13 15 15 14 14 13 12 12 13 14 14 14 15 17 18 20 22 24 25 25 27 27 26 24 23 22 21 21 22 23 24 24 23 23
10 10 9 9 8 8 8 8 8 8 8 8 8 8 8 8 8 8 8 8 8 7 7 6 5 4 4 3 3 3 3 3 3 3 4 4 4 4 4 4 5 5 6 6 5 5 5 5 4 4 6 7 9 12 13 15 15 15 14 14 13 13 13 13 13 13 13 14 17 19 21 23 25 25 26 27 28 27 25 24 24 23 24 25 26 26 25 24
9 9 8 8 8 8 8 8 8 8 8 8 8 8 9 9 9 8 8 7 7 6 6 6 5 5 4 4 4 4 4 4 4 4 5 4 5 5 5 5 5 6 6 6 5 5 5 4 4 4 5 6 8 12 13 14 15 14 14 14 13 12 12 13 13 12 11 11 15 17 19 21 23 24 26 27 28 28 27 26 26 25 25 25 25 25 24 24
8 8 8 8 7 7 7 7 7 7 8 8 8 8 8 8 8 7 6 5 5 5 5 5 4 4 4 3 3 4 4 5 5 6 6 5 5 5 5 5 5 5 6 6 6 6 5 5 5 5 5 5 8 11 13 14 14 14 14 14 14 13 12 12 13 13 12 11 12 15 17 19 20 21 23 24 25 27 27 28 28 27 26 25 24 24 24 24
7 7 7 7 7 6 7 7 7 7 8 8 8 8 7 7 6 5 4 4 4 4 4 3 3 3 3 3 4 4 5 6 7 7 8 7 7 7 7 6 6 6 6 6 6 7 6 6 5 5 5 5 7 10 12 14 14 14 15 14 15 14 13 12 12 13 13 11 11 13 15 17 18 19 20 21 22 23 24 25 27 27 27 26 25 24 24 24
6 6 6 5 5 5 6 6 7 7 7 7 7 7 6 5 4 3 3 2 2 2 2 2 2 3 3 4 5 6 7 8 9 10 10 10 9 9 9 9 8 8 7 7 7 8 8 7 5 5 5 5 7 10 12 13 14 15 15 15 15 15 14 13 12 12 12 12 11 12 14 16 18 19 19 20 22 22 22 22 23 25 25 25 25 24 24 24
6 6 5 5 5 5 5 6 7 7 7 7 6 5 5 4 3 2 2 1 0 1 2 3 4 4 5 6 7 8 9 11 11 12 12 12 11 11 12 12 11 10 9 9 9 8 9 8 7 6 6 7 8 11 12 13 14 15 16 16 17 16 16 15 13 13 13 13 13 13 14 15 18 19 20 22 22 22 23 23 24 24 24 23 24 24 24 24
6 6 6 5 5 5 6 6 7 7 7 6 6 5 4 4 3 3 2 2 3 3 4 5 5 6 7 8 9 11 12 13 14 14 14 14 13 13 13 13 13 13 12 11 10 9 9 9 9 8 8 8 10 12 14 14 15 16 16 18 18 18 17 17 15 13 13 13 13 15 15 16 17 19 20 22 23 23 23 24 26 26 26 24 24 24 23 23
8 8 7 7 6 6 7 7 7 7 7 7 6 6 6 5 5 4 4 4 5 5 6 7 7 8 9 10 12 14 15 16 16 16 16 15 14 14 14 14 14 14 13 12 12 11 10 10 11 10 10 10 11 14 15 16 16 17 17 17 19 19 19 19 18 16 14 14 14 15 16 16 16 18 20 21 23 24 24 25 26 27 26 25 24 24 23 23
9 9 8 8 8 7 7 7 7 8 8 8 8 7 7 7 6 6 6 6 7 8 8 8 9 10 11 12 14 15 16 17 17 18 18 17 16 15 14 14 14 14 14 13 12 12 10 10 11 11 11 12 13 15 16 16 17 18 18 17 17 18 19 20 21 19 16 16 15 15 17 17 16 17 19 20 21 23 24 25 26 26 25 24 24 23 23 22
11 10 10 9 9 9 9 9 9 9 9 9 9 9 9 8 8 8 9 9 9 10 10 10 11 11 12 13 14 16 16 17 18 18 18 18 17 16 15 14 14 13 13 13 13 13 11 10 11 12 12 12 13 14 15 16 17 18 20 19 18 18 18 20 21 21 19 18 18 16 16 19 19 17 17 18 19 21 23 25 26 25 24 23 22 22 22 22
12 12 11 11 11 11 11 11 11 11 11 10 10 10 11 11 11 11 11 11 12 12 12 12 13 13 13 14 15 15 16 17 17 17 18 18 17 16 15 15 14 13 13 13 13 13 13 13 12 13 14 14 14 15 15 15 17 19 20 21 20 19 19 20 21 21 19 19 20 19 16 17 20 20 18 17 17 19 21 23 25 25 24 22 22 22 22 22
14 14 13 13 13 12 12 12 12 13 13 13 13 13 13 13 13 14 14 14 14 14 15 14 15 15 15 15 15 16 16 17 17 17 17 17 17 17 16 16 15 15 14 14 13 13 14 15 16 16 17 16 16 17 16 16 17 19 20 20 20 20 20 20 20 21 19 18 20 21 19 18 20 22 21 18 17 18 19 21 22 23 23 22 21 22 22 23
16 16 16 15 15 15 14 15 15 15 15 15 15 15 15 16 16 16 16 16 16 17 17 17 17 17 17 17 17 17 17 17 18 18 18 18 17 17 17 17 17 17 16 16 16 16 16 17 18 18 20 20 19 18 19 19 18 19 21 21 20 20 20 20 21 22 21 19 20 21 21 20 20 21 23 21 18 18 18 18 20 21 21 21 20 21 23 24
19 18 18 18 18 17 17 17 17 17 17 18 18 18 18 18 18 18 18 18 18 18 18 18 18 19 19 19 18 18 18 18 18 18 19 19 19 18 18 18 18 18 19 19 19 19 19 19 19 19 20 23 23 20 20 20 20 20 22 23 22 21 22 22 22 24 24 21 21 22 22 23 22 21 23 24 22 20 19 18 18 19 19 20 20 21 22 23
22 21 21 21 21 20 20 20 20 20 20 20 21 20 20 20 21 21 21 21 21 21 20 20 20 20 20 20 20 19 19 19 19 19 19 20 20 19 19 19 20 20 20 21 21 22 22 21 21 20 19 22 26 25 22 22 21 20 22 24 24 24 25 24 23 25 26 24 23 23 23 25 25 22 23 25 24 23 21 20 19 18 18 19 20 21 22 23
25 24 24 24 23 23 23 23 23 23 23 23 23 23 23 24 24 24 24 24 23 23 23 22 22 22 22 22 22 21 20 20 20 20 20 20 20 21 21 21 22 22 22 23 23 24 25 24 24 23 21 21 26 27 26 24 23 23 23 25 26 26 26 26 26 28 29 27 25 24 23 27 28 25 25 26 26 25 24 23 22 21 19 20 21 22 24 25
28 27 27 27 26 26 26 26 26 26 26 26 26 26 26 26 26 26 26 26 25 25 25 25 24 24 24 24 23 23 22 22 22 22 21 21 21 22 22 23 24 25 25 25 26 26 27 27 27 28 25 23 26 29 28 26 25 25 26 27 28 29 28 27 27 29 31 30 27 24 24 28 31 28 26 28 28 28 27 26 25 23 22 22 22 24 25 26
Wind_Direction
121 124 125 125 125 125 125 125 126 128 130 131 132 132 132 132 133 133 132 135 135 136 133 131 131 125 126 126 123 126 111 101 103 109 119 118 113 112 110 105 102 98 94 92 90 87 85 89 97 102 100 95 96 94 90 90 92 92 95 103 101 96 93 89 86 82 78 75 70 65 63 60 57 55 52 49 45 42 39 36 35 33 31 30 29 27 26 26
124 125 125 125 124 124 123 125 127 129 130 131 132 133 133 131 131 131 132 133 132 131 129 131 130 127 134 133 135 127 108 107 121 124 119 114 114 113 107 101 96 92 91 90 89 88 88 96 106 106 100 96 96 93 91 91 92 95 97 101 102 99 96 91 86 82 78 74 70 65 62 59 55 52 49 46 42 39 35 33 31 29 28 28 26 24 24 25
125 125 124 123 123 123 124 127 129 130 131 133 134 133 132 131 131 132 131 129 127 128 129 129 126 128 130 125 118 110 113 126 126 119 115 116 114 109 103 98 92 88 89 91 92 91 93 104 111 107 101 99 96 92 93 92 91 94 96 100 106 103 97 92 86 81 77 74 69 63 59 55 50 47 44 40 38 34 32 31 29 27 27 26 24 24 23 23
123 123 123 122 123 124 126 128 130 131 133 134 133 132 131 130 130 130 130 129 128 129 128 127 125 128 123 117 113 116 129 132 119 114 117 116 111 105 101 95 89 87 88 93 93 92 98 110 114 108 102 101 100 93 89 89 92 90 89 99 108 103 99 95 88 81 75 70 63 58 54 50 45 42 38 35 33 31 30 29 28 27 25 24 24 24 23 21
120 120 121 122 124 126 128 129 131 133 133 132 131 130 129 129 129 131 131 130 130 129 127 125 123 122 120 119 121 127 130 122 115 117 119 113 107 103 98 94 90 86 86 90 92 96 107 117 115 107 103 105 100 91 85 84 89 87 83 96 104 103 101 96 88 78 70 62 56 53 47 42 40 36 33 30 29 27 26 25 24 23 22 22 23 22 21 20
119 120 122 123 125 127 129 130 132 132 131 130 129 128 128 128 129 131 132 132 131 127 124 123 119 118 120 123 126 126 122 118 118 119 115 109 105 100 95 93 91 88 85 87 93 100 109 117 113 104 104 107 95 87 85 81 84 85 82 90 98 101 100 93 83 71 60 50 45 42 36 33 32 27 25 23 23 22 21 20 19 18 18 20 21 20 19 19
122 123 123 123 125 127 129 129 130 129 128 127 126 126 127 129 132 133 134 133 128 124 122 120 119 120 122 125 125 120 118 120 120 117 112 106 102 99 94 91 90 90 89 90 94 97 101 104 102 101 99 94 87 84 84 80 80 84 83 85 92 96 92 85 73 57 43 36 31 27 24 23 21 17 15 14 14 15 14 14 13 12 13 16 18 17 17 18
123 123 123 124 126 127 127 127 127 126 126 125 125 126 129 133 135 134 133 129 124 121 121 121 122 123 125 126 122 117 119 121 119 115 110 105 104 101 98 94 91 91 92 92 92 94 96 92 88 93 89 80 80 85 84 80 76 80 82 84 85 80 76 67 47 32 22 18 15 13 11 10 10 7 6 5 5 6 6 7 7 8 9 12 13 12 14 15
123 123 124 126 127 127 127 126 126 125 124 123 124 128 132 136 135 132 129 125 123 121 121 122 124 125 125 126 120 117 121 122 119 115 110 107 104 102 101 98 94 92 92 91 90 91 90 86 82 83 82 77 77 80 80 76 73 75 74 75 74 63 53 39 18 8 4 2 0 1 359 358 359 359 358 357 356 357 357 359 2 4 6 8 8 7 10 12
126 126 128 129 129 128 127 126 125 124 123 122 125 130 135 136 132 130 127 125 124 123 124 124 124 124 125 125 120 119 123 122 119 115 112 108 103 103 103 98 97 96 92 90 88 85 83 83 82 79 78 78 76 74 73 69 67 69 62 57 57 45 31 19 6 358 355 354 354 355 356 355 354 354 354 353 352 351 351 353 356 360 3 4 3 3 5 7
128 129 129 129 127 125 123 122 120 118 117 119 124 131 135 135 133 131 128 128 127 128 130 128 126 126 126 125 122 122 124 122 120 117 113 107 103 105 102 100 102 100 96 93 88 82 79 79 78 76 73 72 71 71 69 63 57 58 52 43 39 31 21 13 6 359 357 355 353 353 355 355 352 351 351 351 350 348 346 348 351 355 357 358 359 359 0 3
128 128 127 125 123 121 120 120 120 121 123 129 138 144 146 145 140 134 131 130 130 132 133 130 129 129 129 127 123 124 126 124 122 118 113 107 105 105 103 105 107 103 101 98 92 84 78 74 70 70 67 62 61 62 63 59 49 45 41 34 28 22 15 9 3 359 357 355 352 351 352 352 351 350 350 350 348 345 344 345 348 350 352 354 355 355 356 360
127 127 126 125 124 123 124 126 129 134 140 147 151 152 149 143 137 133 132 132 133 134 132 130 128 128 133 130 124 126 127 124 121 117 113 110 108 107 107 109 109 106 106 101 92 86 81 74 67 64 62 55 51 49 48 49 43 33 28 23 17 12 7 2 359 356 354 353 351 351 352 352 352 352 352 351 348 346 346 346 348 350 350 352 354 353 353 357
129 129 128 128 128 127 129 132 136 141 145 148 147 144 139 136 133 132 133 133 133 132 130 129 127 131 134 128 124 127 125 122 119 113 111 111 111 112 112 113 112 111 109 100 90 85 82 77 68 60 56 50 44 40 35 36 34 25 20 15 12 8 3 0 358 356 355 354 353 353 354 354 354 354 353 352 349 347 348 350 351 352 351 352 355 354 354 356
132 132 132 133 132 133 137 139 142 143 144 144 141 137 134 133 132 132 132 131 130 130 130 129 128 133 132 124 125 126 123 122 117 114 113 112 114 116 118 117 116 113 106 97 89 83 79 76 69 58 50 43 36 31 26 26 26 21 15 12 10 5 2 1 360 358 356 355 355 354 355 356 356 355 355 354 351 349 351 353 354 353 352 354 355 354 356 357
136 138 139 139 139 142 144 144 145 144 142 141 137 134 132 132 132 131 130 129 128 128 129 127 127 132 128 123 127 125 122 122 118 116 117 115 118 122 122 121 118 113 103 95 88 82 75 70 65 54 42 34 29 23 21 24 22 17 12 10 9 5 4 3 2 1 359 358 358 359 360 1 2 0 359 357 353 352 354 356 356 354 353 356 355 354 358 359
143 145 145 144 144 145 145 146 145 143 140 138 135 133 131 131 131 130 129 128 128 127 127 126 127 129 125 124 126 123 122 122 120 120 119 121 125 126 125 122 116 109 100 92 84 78 69 62 58 47 34 27 23 21 23 24 20 14 10 10 10 9 10 10 8 7 6 5 5 6 7 8 8 6 3 359 356 355 356 358 358 356 356 357 355 355 358 359
151 151 148 145 145 145 145 146 144 140 138 136 134 132 131 130 130 128 128 127 126 125 125 125 127 126 122 122 121 120 120 120 121 122 123 126 128 127 124 118 112 105 96 88 81 72 61 55 51 42 31 25 23 24 24 21 17 13 12 15 16 15 17 19 17 14 13 14 15 15 15 14 12 9 5 1 359 357 358 359 358 358 359 357 355 357 359 359
154 150 147 145 144 144 144 144 141 138 136 135 132 130 129 128 127 127 127 125 123 122 121 123 125 121 118 118 118 118 117 118 121 122 125 128 128 125 120 114 109 102 94 85 75 65 55 51 49 40 30 25 24 22 19 16 15 15 16 18 21 20 20 23 22 18 17 20 25 25 23 20 15 10 7 4 1 360 0 0 358 358 360 358 357 360 360 0
153 148 145 144 143 143 143 141 138 136 135 133 131 129 127 126 127 127 126 123 121 119 119 121 121 117 115 116 118 116 115 117 120 122 125 125 125 122 117 113 106 97 89 78 68 61 54 49 44 35 27 24 22 20 15 13 15 18 18 19 22 23 22 23 23 20 18 22 30 32 29 24 17 13 10 7 4 3 5 4 360 0 4 6 6 4 2 2
149 145 144 143 143 143 141 139 136 134 133 131 130 127 125 125 125 124 124 123 120 119 120 120 118 116 116 117 117 115 116 120 121 122 123 122 123 119 113 106 98 88 80 73 66 59 52 43 34 25 23 22 22 18 13 14 17 19 19 19 22 25 23 22 23 22 20 23 30 32 29 24 17 13 10 9 8 9 11 9 6 9 15 18 16 11 9 8
143 142 141 141 142 142 140 137 135 133 132 130 129 126 125 125 122 122 125 122 120 122 122 121 118 119 119 119 119 119 121 123 122 121 120 120 116 108 103 98 90 82 77 74 64 53 47 39 30 27 25 22 21 19 16 18 19 18 17 17 20 24 24 23 23 23 22 23 27 29 27 23 17 12 10 10 11 14 17 15 14 18 22 23 20 17 16 14
139 139 140 139 139 139 138 137 135 133 131 129 127 125 124 123 120 122 126 123 123 127 125 124 124 123 123 124 124 122 122 121 118 117 116 111 104 97 93 89 83 78 74 68 55 47 50 41 33 29 27 25 24 24 21 20 17 14 14 14 16 20 23 24 24 25 23 22 25 28 27 23 17 13 11 12 14 17 20 20 22 24 24 22 21 21 21 19
137 138 139 139 138 138 138 137 134 132 130 128 125 124 123 122 121 123 126 125 127 129 127 128 128 127 128 128 127 124 121 120 118 116 113 108 102 96 89 84 83 81 76 71 63 56 50 40 33 31 31 28 27 24 22 18 14 11 10 11 11 14 21 23 22 24 24 23 24 25 26 23 18 15 14 14 16 19 23 25 27 26 24 22 22 23 24 24
137 138 139 139 139 139 138 136 133 130 128 126 124 124 123 123 122 122 126 127 128 129 130 131 130 130 130 129 128 125 123 124 121 118 116 112 107 102 97 96 98 92 84 75 58 44 40 37 33 32 30 24 20 17 16 13 9 8 7 7 8 11 18 19 16 18 21 24 24 21 21 23 19 15 15 15 16 21 27 30 31 28 25 25 24 24 25 24
137 138 139 139 139 137 135 134 131 128 127 125 123 123 123 123 122 123 127 128 128 130 131 131 131 130 130 129 128 127 125 125 122 121 121 117 112 109 108 107 98 88 76 54 38 36 37 36 32 29 23 16 11 7 6 4 4 6 7 7 8 9 15 17 13 13 16 21 23 19 18 22 19 12 11 14 15 22 30 32 33 32 30 28 26 25 26 24
137 138 139 138 137 135 133 131 129 127 125 124 123 123 122 122 123 125 129 128 127 129 129 130 130 128 129 129 128 128 129 126 121 120 121 119 114 106 101 96 84 68 50 34 26 29 29 27 22 15 6 3 1 359 358 358 360 4 6 9 10 9 12 15 13 13 14 17 19 17 16 20 18 11 8 11 15 22 31 33 35 38 35 30 26 25 26 24
138 138 138 137 135 133 131 129 128 126 125 124 122 122 122 124 126 128 130 128 126 126 127 128 127 126 129 130 129 130 129 123 117 116 118 111 100 90 84 74 53 32 27 19 13 17 15 9 3 353 350 355 356 355 355 355 359 3 5 8 8 7 11 13 14 16 15 15 15 13 14 17 17 11 9 12 15 21 31 37 39 41 39 33 28 25 24 22
137 137 136 134 133 131 129 127 127 126 125 124 123 123 125 128 130 131 131 130 128 126 125 126 125 126 130 130 129 128 125 117 110 108 98 83 78 75 66 46 24 10 11 7 1 2 357 351 345 342 350 358 357 357 358 0 2 2 4 6 4 4 9 12 16 18 15 13 12 10 10 12 13 11 11 13 16 19 27 37 41 43 41 37 30 25 23 21
136 135 134 132 131 129 127 126 126 125 125 125 126 127 130 133 133 133 133 132 130 127 126 126 125 128 131 130 128 125 119 105 90 80 68 61 61 55 36 15 1 357 359 357 352 348 344 338 337 345 357 1 0 2 4 6 4 3 4 4 1 359 4 12 19 20 16 11 8 8 7 8 10 10 8 11 16 18 20 29 40 45 44 39 32 27 23 20
134 133 131 131 130 128 126 126 126 126 127 128 130 131 132 134 134 134 135 134 131 128 128 127 128 131 132 129 126 118 99 78 57 40 31 19 12 15 0 342 343 351 348 348 346 341 333 331 340 353 359 2 6 7 8 7 5 3 2 360 358 357 1 11 19 18 14 9 7 7 6 7 8 8 6 7 11 14 15 18 30 42 47 44 37 31 27 24
133 132 130 130 129 128 126 127 128 129 130 131 132 134 134 135 136 135 135 136 133 129 127 127 128 128 124 120 121 105 67 36 13 6 2 353 349 341 324 321 336 335 334 340 338 329 324 334 348 356 2 8 9 8 7 5 2 0 359 358 359 358 357 4 11 12 12 11 8 9 8 6 5 5 5 3 5 9 10 9 12 22 34 41 39 34 30 27
133 131 131 131 130 128 127 127 129 130 131 132 135 137 135 134 136 133 131 132 129 125 124 123 122 119 118 122 126 106 38 1 352 348 340 333 333 327 323 329 326 320 327 332 325 321 328 342 350 356 6 11 7 4 3 1 359 358 357 357 357 356 356 358 0 7 14 16 13 12 12 8 5 5 5 3 1 3 6 5 3 4 10 20 26 30 30 27
133 132 132 131 129 128 128 129 130 131 133 132 133 134 132 131 132 132 130 128 124 120 119 118 117 118 119 122 113 77 43 20 0 346 338 338 337 330 322 317 312 313 321 323 320 326 336 345 351 0 11 10 6 4 3 360 358 356 355 355 356 357 358 358 359 6 15 20 19 16 17 14 10 8 8 6 3 1 2 3 1 360 1 5 9 16 22 23
134 133 132 131 130 129 130 132 133 133 132 130 129 129 128 128 130 130 128 124 118 114 113 111 109 110 108 103 88 58 38 16 356 344 339 334 324 313 306 304 304 307 312 316 321 327 335 344 355 5 9 9 8 9 7 2 358 356 354 355 359 359 356 357 0 5 14 22 22 19 18 17 14 11 10 10 8 5 2 1 0 0 1 1 2 5 11 16
136 134 133 132 132 132 133 135 135 133 129 126 127 127 126 125 125 124 121 117 113 108 108 105 100 96 91 81 62 42 27 8 351 341 333 326 315 307 305 305 304 304 306 310 318 323 329 341 354 358 0 6 11 12 9 4 360 356 355 355 358 358 354 355 359 4 11 22 24 21 16 14 12 10 9 9 9 7 5 2 0 0 1 2 1 0 3 9
139 138 137 137 137 138 138 138 137 134 130 127 127 126 125 123 122 120 117 113 107 98 95 93 88 81 74 64 48 33 20 7 357 347 338 330 318 311 310 308 305 303 304 307 312 318 324 331 332 338 346 353 3 7 7 4 0 356 354 353 353 353 352 353 357 2 6 14 19 17 12 8 6 3 2 3 4 4 3 2 0 359 359 359 359 359 0 4
145 145 144 144 145 145 143 141 139 137 134 131 129 128 126 125 122 119 112 103 94 85 80 76 71 64 52 38 22 9 359 348 339 330 324 318 312 308 305 303 298 295 296 299 305 312 317 317 312 317 326 333 347 357 1 0 357 353 352 350 347 346 348 349 353 359 3 6 8 8 5 1 357 354 354 355 356 356 357 357 358 357 357 356 356 357 358 359
156 155 153 154 155 154 148 146 146 143 139 137 134 132 131 130 127 119 106 95 83 75 70 59 47 34 17 0 348 341 335 329 322 314 306 301 296 292 289 289 287 284 285 290 295 302 308 308 301 300 305 316 335 348 353 354 353 351 350 348 343 341 341 342 344 350 357 359 359 359 359 355 352 351 351 350 351 352 353 353 353 353 353 352 352 352 354 355
171 168 167 169 169 166 161 158 156 153 150 148 145 142 142 140 138 129 115 102 82 62 45 20 0 345 335 327 322 321 320 319 317 312 304 296 289 284 280 278 275 274 276 280 286 294 300 299 291 283 288 304 326 338 343 346 349 349 348 347 342 336 334 335 335 338 344 349 351 353 354 351 349 349 350 350 352 352 352 353 352 349 347 345 345 347 349 351
191 188 187 187 184 181 175 170 167 164 163 163 161 159 161 162 162 161 157 161 329 331 321 322 322 317 315 313 312 312 313 315 315 313 308 300 292 286 280 274 270 268 268 271 278 285 291 289 281 275 280 296 316 328 335 339 344 347 347 346 341 335 330 329 327 328 332 337 341 343 345 347 346 347 348 349 351 352 351 352 353 350 347 343 341 343 346 348
210 207 205 201 194 189 184 179 177 176 177 181 184 186 191 197 205 215 229 255 277 286 292 300 304 305 306 307 308 310 311 312 313 313 310 304 297 290 284 277 272 268 267 267 271 276 278 276 273 273 279 292 310 323 330 333 337 342 345 344 339 333 328 324 322 320 321 326 330 331 337 344 345 346 348 348 349 351 351 351 351 350 349 346 341 338 339 342
220 218 214 210 206 202 195 192 191 191 194 199 203 208 214 221 230 241 254 267 275 281 287 293 298 301 303 306 308 311 312 313 313 312 310 304 297 292 288 283 277 272 269 267 267 268 266 266 269 274 282 292 308 321 327 329 332 335 339 341 337 331 325 321 319 315 313 315 319 323 329 339 346 346 347 349 349 348 349 349 349 348 348 347 343 338 334 333
228 226 221 218 217 213 208 209 208 208 210 213 218 223 228 235 244 253 262 269 276 281 286 291 295 299 302 307 310 313 315 315 314 312 309 304 298 294 291 288 283 277 273 270 269 268 262 258 265 274 285 295 309 319 323 325 327 329 331 335 335 329 323 320 318 315 312 309 311 319 325 330 341 346 344 346 348 346 346 347 346 346 345 344 342 340 335 330
235 232 228 226 225 222 220 221 221 222 224 227 231 236 240 246 252 258 264 270 275 280 283 287 291 294 300 306 311 315 318 318 317 314 310 306 301 295 293 291 288 283 279 275 274 273 268 261 263 271 280 290 300 310 315 318 322 325 326 330 333 330 325 322 319 317 315 311 309 316 323 324 330 339 340 340 343 344 344 344 343 343 342 341 341 342 340 335
239 238 236 235 233 231 231 233 234 236 238 240 244 247 251 255 258 261 266 270 273 276 280 283 286 290 295 301 307 313 318 320 320 318 314 309 303 296 292 290 289 287 283 280 278 278 277 275 275 277 281 287 295 302 308 314 319 322 324 327 330 330 328 325 321 318 317 313 309 311 317 319 321 327 332 335 337 339 341 340 339 339 338 337 339 342 343 339
242 241 242 243 243 243 243 245 246 248 250 252 254 257 258 261 264 266 268 271 273 275 278 280 283 286 290 296 302 309 315 318 321 320 317 312 305 297 290 287 287 286 284 283 281 280 281 282 284 286 287 290 296 301 306 312 317 318 318 321 326 327 325 325 322 319 317 313 306 306 310 312 314 317 321 326 329 331 334 336 336 335 333 330 333 338 341 339
245 245 245 247 248 250 252 253 254 256 257 259 260 263 264 267 269 270 271 272 274 276 278 279 281 283 286 291 296 303 309 314 318 319 317 313 307 299 291 286 284 283 283 284 283 281 281 283 285 289 291 292 294 300 305 310 317 317 314 316 322 324 324 324 322 319 319 316 308 306 307 306 308 313 315 317 320 322 325 329 330 330 327 323 324 330 334 335
248 248 249 250 251 253 255 257 259 261 263 264 266 267 269 271 273 274 275 276 276 277 278 279 280 281 283 287 291 297 302 308 312 314 314 312 308 302 295 290 286 284 283 284 284 282 282 283 284 287 292 294 295 299 303 307 315 318 314 315 319 321 322 324 322 319 320 319 313 311 307 302 304 309 310 312 314 315 315 318 320 323 320 316 315 318 323 327
252 252 252 252 254 255 257 259 261 264 266 268 269 271 273 274 276 277 277 278 279 279 280 280 280 281 282 283 287 291 296 301 305 308 309 309 307 304 299 295 290 288 286 286 286 284 283 284 284 284 288 292 295 299 302 305 311 314 312 312 316 318 320 323 322 319 320 319 315 313 309 302 301 304 303 305 308 308 308 308 310 312 311 307 305 307 311 316
254 254 254 255 256 257 258 260 262 265 267 269 271 273 274 275 276 277 278 278 279 279 280 281 281 281 281 283 284 288 292 296 300 303 304 304 304 302 300 298 295 293 291 289 288 286 284 285 285 284 285 288 291 295 298 302 306 308 307 307 310 314 317 320 321 318 316 317 316 315 309 302 301 303 300 300 302 302 302 302 301 302 301 299 298 299 303 308
257 257 257 257 258 259 260 262 264 266 269 270 272 274 275 275 276 277 277 277 277 278 279 280 281 281 281 282 284 286 289 292 295 298 299 300 300 299 298 298 296 295 294 292 291 289 286 286 285 285 285 286 286 288 291 294 299 302 303 303 305 308 311 314 317 314 310 311 315 317 309 300 301 302 300 298 299 299 299 297 295 294 294 293 293 296 299 304
Height
5828 5830 5833 5835 5837 5838 5840 5842 5843 5845 5847 5848 5850 5851 5852 5853 5854 5855 5855 5856 5856 5857 5858 5858 5858 5859 5859 5859 5859 5859 5859 5860 5860 5861 5862 5862 5862 5863 5864 5864 5863 5862 5861 5861 5860 5860 5860 5861 5862 5862 5862 5861 5861 5861 5860 5860 5859 5857 5858 5861 5861 5859 5857 5856 5855 5853 5852 5851 5851 5849 5848 5847 5846 5844 5842 5841 5839 5837 5836 5833 5831 5829 5826 5824 5821 5818 5815 5811
5830 5833 5835 5836 5838 5840 5842 5843 5845 5846 5848 5849 5851 5852 5853 5853 5854 5855 5856 5857 5857 5858 5858 5858 5858 5859 5859 5859 5859 5859 5859 5860 5861 5862 5862 5863 5864 5865 5865 5864 5863 5862 5861 5861 5860 5860 5862 5863 5864 5863 5862 5863 5863 5862 5862 5862 5860 5859 5860 5862 5861 5860 5858 5857 5856 5854 5853 5852 5851 5850 5849 5848 5846 5845 5843 5842 5840 5838 5836 5833 5831 5829 5826 5823 5821 5818 5814 5810
5832 5835 5836 5838 5840 5841 5843 5845 5846 5847 5849 5850 5851 5852 5853 5854 5855 5855 5856 5857 5857 5857 5858 5858 5858 5858 5859 5859 5859 5858 5860 5862 5862 5862 5863 5864 5865 5865 5865 5864 5863 5863 5862 5862 5862 5862 5863 5865 5865 5864 5863 5864 5865 5864 5863 5862 5862 5861 5861 5862 5862 5860 5859 5858 5856 5855 5854 5853 5852 5851 5850 5848 5847 5845 5844 5842 5840 5838 5836 5833 5831 5828 5826 5823 5820 5817 5813 5810
5835 5836 5838 5839 5841 5842 5844 5846 5847 5848 5849 5851 5852 5852 5853 5854 5855 5856 5857 5857 5857 5858 5858 5858 5858 5858 5858 5858 5859 5859 5862 5863 5862 5862 5864 5865 5865 5866 5865 5864 5864 5864 5864 5863 5863 5864 5865 5866 5866 5865 5864 5865 5866 5865 5865 5864 5863 5863 5863 5863 5863 5861 5860 5859 5857 5856 5855 5854 5853 5852 5850 5849 5847 5846 5844 5842 5840 5838 5835 5833 5831 5828 5826 5823 5820 5817 5814 5811
5836 5838 5839 5841 5842 5844 5845 5847 5848 5850 5850 5851 5852 5853 5854 5855 5856 5856 5857 5857 5857 5858 5858 5858 5858 5858 5858 5858 5859 5861 5863 5863 5862 5864 5866 5866 5866 5866 5866 5865 5864 5864 5865 5865 5865 5866 5867 5868 5868 5866 5866 5867 5867 5866 5866 5866 5864 5863 5864 5864 5863 5862 5860 5859 5858 5857 5856 5855 5854 5852 5851 5849 5848 5846 5844 5842 5840 5838 5835 5833 5831 5828 5826 5823 5820 5817 5814 5812
5838 5840 5841 5842 5844 5845 5847 5849 5850 5851 5852 5852 5853 5854 5855 5856 5856 5856 5857 5857 5857 5858 5858 5858 5858 5859 5859 5859 5860 5862 5863 5863 5864 5865 5866 5866 5867 5867 5867 5866 5865 5866 5866 5867 5867 5868 5869 5869 5869 5867 5867 5869 5868 5867 5867 5867 5865 5864 5865 5865 5864 5863 5861 5860 5859 5858 5857 5856 5854 5853 5851 5849 5848 5846 5844 5842 5840 5838 5836 5833 5831 5829 5826 5823 5820 5818 5815 5812
5840 5841 5842 5844 5845 5847 5849 5850 5851 5852 5852 5853 5854 5855 5855 5856 5856 5856 5857 5857 5857 5858 5858 5858 5858 5859 5860 5862 5862 5862 5864 5865 5866 5866 5867 5867 5867 5868 5868 5868 5867 5868 5868 5869 5870 5870 5870 5870 5869 5868 5869 5869 5868 5868 5868 5867 5866 5865 5865 5865 5864 5863 5862 5861 5860 5859 5857 5856 5854 5853 5851 5849 5848 5846 5844 5842 5840 5838 5836 5834 5831 5828 5825 5823 5820 5818 5815 5812
5842 5843 5844 5845 5847 5848 5849 5851 5851 5852 5853 5854 5854 5855 5855 5856 5856 5856 5857 5857 5857 5857 5858 5858 5859 5860 5861 5864 5863 5862 5865 5867 5867 5867 5867 5868 5869 5869 5869 5869 5869 5870 5870 5871 5871 5871 5871 5870 5870 5870 5869 5869 5869 5869 5868 5868 5867 5866 5866 5866 5864 5864 5863 5861 5860 5859 5858 5856 5855 5853 5851 5850 5848 5846 5845 5843 5841 5838 5836 5834 5831 5828 5825 5822 5820 5818 5816 5813
5843 5844 5845 5847 5848 5849 5850 5851 5852 5853 5854 5854 5855 5855 5855 5856 5856 5856 5857 5857 5857 5858 5859 5860 5861 5861 5862 5865 5865 5864 5866 5868 5868 5868 5868 5869 5870 5870 5871 5870 5871 5872 5872 5872 5873 5873 5872 5870 5871 5871 5870 5870 5871 5870 5869 5868 5868 5867 5867 5866 5865 5864 5863 5862 5861 5860 5858 5857 5855 5853 5852 5850 5848 5846 5844 5843 5840 5838 5836 5833 5831 5828 5825 5822 5820 5818 5816 5813
5845 5846 5847 5848 5849 5850 5851 5852 5853 5854 5854 5855 5855 5855 5855 5856 5856 5856 5857 5857 5858 5858 5859 5861 5863 5864 5864 5866 5866 5866 5868 5869 5870 5870 5870 5870 5871 5872 5872 5872 5872 5873 5873 5874 5874 5874 5872 5872 5872 5872 5871 5872 5871 5871 5870 5869 5869 5868 5867 5867 5865 5865 5864 5862 5861 5860 5859 5857 5855 5854 5852 5850 5848 5846 5844 5842 5840 5838 5836 5833 5831 5828 5825 5823 5821 5818 5816 5813
5846 5847 5848 5849 5850 5851 5852 5853 5853 5854 5854 5855 5855 5855 5855 5856 5856 5857 5857 5858 5859 5860 5861 5862 5864 5866 5867 5867 5867 5868 5870 5870 5871 5871 5871 5872 5872 5873 5873 5873 5874 5874 5874 5875 5875 5875 5874 5874 5873 5873 5873 5873 5872 5871 5870 5870 5870 5869 5868 5867 5866 5865 5864 5863 5862 5860 5859 5857 5855 5854 5852 5850 5848 5847 5844 5842 5840 5838 5836 5833 5831 5828 5826 5824 5821 5818 5816 5813
5847 5848 5849 5850 5851 5852 5853 5853 5854 5854 5855 5855 5855 5856 5856 5856 5857 5857 5858 5859 5860 5862 5863 5864 5864 5866 5868 5869 5869 5870 5871 5872 5872 5872 5872 5873 5873 5874 5874 5875 5875 5875 5876 5876 5876 5876 5875 5875 5875 5874 5874 5874 5873 5872 5871 5871 5870 5869 5869 5868 5867 5865 5864 5863 5862 5860 5859 5857 5855 5853 5852 5850 5848 5846 5844 5842 5840 5838 5835 5833 5831 5828 5826 5824 5822 5819 5816 5813
5848 5849 5850 5851 5852 5853 5854 5855 5855 5855 5856 5856 5856 5856 5857 5857 5858 5859 5860 5861 5862 5864 5865 5866 5866 5867 5869 5870 5870 5871 5873 5873 5873 5873 5874 5874 5874 5875 5875 5876 5876 5876 5877 5877 5877 5876 5876 5876 5876 5875 5875 5874 5874 5873 5872 5871 5870 5870 5869 5868 5867 5866 5864 5863 5861 5860 5858 5857 5855 5853 5852 5850 5848 5846 5844 5841 5839 5837 5835 5833 5830 5828 5826 5824 5821 5819 5816 5813
5849 5850 5851 5852 5853 5854 5855 5855 5856 5856 5856 5856 5856 5857 5858 5859 5860 5861 5862 5863 5864 5866 5867 5868 5868 5869 5870 5871 5872 5873 5873 5874 5874 5874 5875 5875 5876 5876 5876 5877 5877 5877 5878 5878 5878 5877 5877 5877 5876 5876 5876 5875 5875 5874 5873 5872 5871 5870 5869 5868 5867 5865 5864 5863 5861 5859 5858 5856 5855 5853 5851 5849 5847 5845 5843 5841 5839 5836 5834 5832 5829 5827 5825 5822 5820 5818 5815 5812
5850 5851 5852 5853 5854 5855 5855 5856 5856 5856 5856 5857 5858 5858 5859 5861 5862 5863 5864 5865 5866 5867 5868 5869 5870 5871 5871 5872 5873 5874 5874 5875 5875 5875 5876 5876 5877 5877 5877 5878 5878 5878 5879 5879 5878 5878 5878 5877 5877 5877 5876 5876 5875 5874 5873 5872 5871 5870 5869 5868 5867 5865 5864 5863 5861 5859 5858 5856 5854 5852 5851 5849 5847 5845 5842 5840 5838 5836 5833 5831 5829 5826 5824 5821 5819 5817 5814 5811
5851 5852 5853 5854 5855 5855 5856 5856 5857 5857 5858 5858 5859 5860 5861 5863 5864 5865 5866 5867 5868 5869 5870 5870 5871 5872 5872 5873 5874 5875 5875 5876 5876 5876 5877 5877 5878 5878 5878 5878 5879 5879 5879 5879 5879 5879 5879 5878 5877 5877 5877 5876 5875 5875 5873 5872 5871 5870 5869 5868 5867 5866 5864 5863 5861 5859 5858 5856 5854 5852 5850 5848 5846 5844 5842 5839 5837 5834 5832 5830 5828 5826 5823 5820 5818 5815 5813 5811
5851 5852 5853 5854 5855 5856 5856 5857 5858 5859 5859 5860 5861 5862 5863 5865 5866 5867 5867 5868 5869 5870 5871 5871 5872 5873 5873 5874 5875 5875 5876 5876 5876 5877 5877 5878 5879 5879 5879 5879 5880 5880 5880 5880 5880 5879 5879 5878 5878 5877 5877 5876 5876 5875 5873 5872 5871 5870 5869 5868 5867 5866 5864 5863 5861 5859 5857 5855 5854 5852 5850 5848 5846 5843 5841 5839 5836 5834 5831 5829 5827 5825 5822 5819 5817 5814 5812 5810
5852 5853 5853 5854 5855 5856 5857 5859 5859 5860 5861 5862 5863 5864 5865 5866 5867 5868 5869 5869 5870 5871 5872 5873 5873 5874 5874 5875 5876 5876 5876 5877 5877 5878 5878 5879 5879 5880 5880 5880 5881 5881 5881 5880 5880 5880 5879 5879 5878 5878 5877 5876 5876 5875 5874 5873 5872 5870 5869 5868 5867 5865 5864 5862 5860 5858 5857 5855 5854 5852 5850 5847 5845 5843 5840 5838 5835 5833 5831 5828 5826 5824 5821 5818 5816 5814 5811 5809
5852 5853 5854 5855 5856 5858 5859 5860 5861 5862 5863 5864 5865 5866 5867 5868 5868 5869 5870 5870 5871 5872 5873 5874 5874 5875 5875 5876 5876 5877 5877 5877 5878 5879 5879 5880 5880 5880 5881 5881 5881 5881 5881 5881 5880 5880 5880 5879 5878 5878 5877 5877 5876 5875 5874 5873 5871 5870 5869 5868 5867 5865 5863 5861 5860 5858 5856 5855 5853 5851 5849 5847 5845 5842 5840 5837 5835 5833 5830 5827 5825 5823 5821 5818 5815 5813 5811 5809
5852 5854 5855 5856 5857 5859 5860 5862 5863 5864 5865 5866 5867 5867 5868 5869 5870 5870 5871 5872 5872 5873 5874 5875 5875 5876 5876 5877 5877 5877 5878 5878 5879 5879 5880 5880 5881 5881 5881 5882 5882 5882 5881 5881 5880 5880 5880 5879 5878 5878 5878 5877 5876 5874 5873 5872 5871 5870 5869 5867 5866 5865 5863 5861 5859 5858 5856 5855 5853 5851 5849 5847 5844 5842 5839 5837 5834 5832 5830 5827 5825 5823 5820 5817 5815 5813 5811 5808
5853 5855 5856 5857 5859 5860 5862 5863 5864 5866 5867 5867 5868 5869 5869 5871 5871 5872 5872 5873 5874 5874 5875 5876 5876 5876 5877 5877 5878 5878 5879 5879 5880 5880 5881 5881 5882 5882 5882 5882 5882 5882 5881 5881 5880 5880 5880 5879 5879 5878 5878 5876 5875 5874 5873 5872 5871 5870 5868 5867 5866 5864 5863 5861 5859 5858 5856 5854 5853 5851 5849 5847 5844 5841 5839 5836 5834 5832 5829 5827 5825 5823 5820 5817 5815 5813 5811 5808
5854 5856 5857 5859 5861 5862 5863 5864 5866 5867 5868 5869 5870 5870 5871 5872 5872 5873 5874 5874 5875 5875 5876 5877 5877 5877 5878 5878 5879 5879 5880 5880 5881 5881 5882 5882 5882 5882 5882 5882 5882 5882 5881 5881 5881 5880 5880 5880 5879 5878 5877 5876 5875 5875 5873 5872 5871 5869 5868 5867 5866 5864 5862 5861 5859 5857 5856 5854 5852 5851 5848 5846 5843 5841 5838 5836 5834 5831 5829 5827 5825 5822 5819 5817 5815 5813 5810 5808
5856 5857 5859 5861 5862 5864 5865 5866 5867 5868 5869 5870 5871 5871 5872 5873 5873 5874 5875 5875 5876 5876 5877 5877 5878 5878 5879 5879 5880 5880 5881 5881 5881 5882 5882 5882 5882 5882 5882 5882 5882 5882 5881 5881 5881 5881 5881 5880 5879 5878 5877 5876 5875 5875 5873 5872 5871 5869 5868 5867 5865 5864 5862 5861 5859 5857 5855 5853 5852 5850 5848 5846 5843 5840 5837 5835 5833 5831 5828 5826 5824 5821 5819 5817 5815 5812 5810 5808
5858 5859 5861 5862 5864 5866 5867 5868 5869 5869 5870 5871 5872 5872 5873 5874 5874 5875 5876 5876 5877 5877 5878 5878 5879 5879 5880 5880 5881 5881 5881 5882 5882 5882 5882 5882 5883 5883 5883 5882 5882 5882 5882 5882 5882 5881 5880 5879 5878 5878 5877 5876 5875 5874 5873 5872 5871 5869 5868 5866 5865 5863 5862 5861 5859 5857 5855 5853 5851 5849 5847 5845 5843 5840 5837 5835 5832 5830 5828 5825 5823 5821 5819 5817 5814 5812 5809 5807
5860 5861 5863 5864 5866 5867 5869 5870 5870 5871 5871 5872 5873 5873 5874 5875 5875 5876 5877 5877 5877 5878 5878 5879 5879 5880 5880 5881 5881 5882 5882 5882 5883 5883 5883 5883 5883 5883 5883 5883 5883 5883 5882 5882 5882 5881 5880 5879 5878 5877 5877 5876 5875 5874 5873 5872 5870 5869 5868 5866 5864 5863 5862 5860 5859 5857 5855 5853 5851 5849 5847 5845 5842 5839 5837 5834 5832 5830 5827 5825 5822 5820 5819 5816 5814 5811 5809 5807
5862 5864 5865 5866 5868 5869 5870 5871 5872 5872 5872 5873 5874 5874 5875 5875 5876 5877 5877 5878 5878 5879 5879 5879 5880 5880 5881 5881 5882 5882 5883 5883 5883 5883 5884 5884 5884 5883 5883 5883 5883 5883 5882 5882 5881 5880 5879 5879 5878 5877 5877 5876 5875 5874 5872 5871 5870 5869 5867 5865 5864 5862 5861 5860 5858 5856 5854 5853 5851 5849 5847 5845 5842 5839 5836 5834 5832 5829 5827 5824 5822 5820 5818 5816 5813 5811 5809 5806
5864 5866 5867 5868 5869 5870 5871 5872 5872 5873 5873 5874 5874 5875 5876 5876 5877 5877 5878 5878 5879 5879 5880 5880 5881 5881 5882 5882 5882 5883 5883 5883 5884 5884 5884 5884 5884 5884 5883 5883 5883 5882 5882 5881 5881 5880 5879 5879 5878 5877 5877 5876 5874 5873 5872 5871 5870 5868 5867 5865 5863 5862 5861 5859 5858 5856 5854 5852 5851 5849 5847 5845 5842 5840 5837 5834 5832 5829 5826 5824 5822 5820 5818 5816 5813 5811 5809 5807
5866 5868 5869 5870 5870 5871 5872 5873 5873 5874 5874 5875 5875 5876 5876 5877 5878 5878 5879 5879 5879 5880 5880 5881 5881 5882 5882 5883 5883 5883 5884 5884 5884 5884 5884 5884 5884 5884 5883 5883 5883 5882 5882 5881 5881 5880 5879 5879 5878 5877 5876 5875 5874 5873 5872 5870 5869 5867 5866 5864 5863 5861 5860 5859 5857 5855 5854 5852 5851 5849 5847 5845 5843 5840 5837 5834 5832 5829 5827 5824 5822 5820 5818 5816 5813 5811 5809 5807
5868 5869 5870 5871 5871 5872 5873 5873 5874 5875 5875 5876 5876 5877 5877 5878 5878 5879 5880 5880 5880 5880 5881 5882 5882 5882 5883 5883 5883 5884 5884 5884 5884 5884 5884 5884 5884 5884 5883 5883 5882 5882 5882 5881 5881 5880 5879 5879 5878 5877 5876 5875 5874 5872 5871 5870 5868 5867 5865 5864 5862 5860 5859 5858 5857 5855 5854 5852 5851 5849 5847 5845 5842 5840 5838 5835 5832 5830 5827 5825 5823 5820 5818 5816 5814 5812 5809 5807
5869 5870 5871 5871 5872 5873 5873 5874 5875 5875 5876 5876 5877 5878 5878 5879 5879 5880 5880 5881 5881 5881 5882 5882 5883 5883 5883 5883 5884 5884 5884 5884 5884 5884 5884 5884 5884 5883 5883 5882 5882 5882 5881 5881 5881 5880 5879 5878 5877 5876 5875 5874 5873 5872 5870 5869 5868 5866 5864 5863 5861 5860 5859 5858 5856 5855 5853 5852 5850 5848 5846 5844 5842 5839 5837 5835 5833 5830 5828 5826 5823 5821 5819 5817 5815 5813 5810 5808
5870 5871 5872 5872 5873 5874 5874 5875 5876 5876 5877 5877 5878 5879 5879 5880 5880 5880 5881 5881 5881 5882 5882 5883 5883 5883 5884 5884 5884 5884 5884 5884 5884 5884 5884 5884 5883 5883 5883 5882 5882 5881 5881 5881 5880 5879 5879 5878 5877 5876 5875 5874 5873 5871 5870 5869 5867 5866 5864 5862 5861 5859 5858 5857 5856 5854 5853 5851 5850 5847 5845 5843 5840 5838 5836 5834 5832 5830 5828 5826 5824 5822 5819 5817 5815 5813 5811 5808
5871 5872 5872 5873 5874 5874 5875 5876 5876 5877 5878 5878 5879 5879 5880 5880 5881 5881 5881 5881 5882 5882 5882 5883 5883 5883 5884 5884 5884 5884 5884 5884 5884 5883 5883 5883 5883 5883 5882 5882 5881 5881 5881 5880 5879 5879 5878 5877 5876 5875 5874 5873 5872 5871 5869 5868 5867 5865 5864 5862 5860 5858 5857 5856 5855 5854 5852 5851 5848 5846 5844 5842 5840 5838 5835 5833 5831 5829 5827 5826 5824 5822 5820 5817 5815 5813 5811 5809
5872 5873 5873 5874 5874 5875 5876 5877 5877 5878 5878 5879 5879 5880 5880 5880 5881 5881 5881 5882 5882 5882 5883 5883 5883 5883 5883 5883 5883 5883 5883 5883 5883 5883 5883 5883 5882 5882 5882 5881 5880 5880 5880 5879 5879 5878 5877 5876 5875 5874 5873 5872 5871 5870 5869 5867 5866 5865 5863 5862 5860 5859 5857 5856 5854 5853 5851 5849 5847 5846 5844 5842 5839 5837 5835 5833 5830 5829 5827 5825 5823 5821 5819 5817 5815 5813 5811 5809
5872 5873 5874 5874 5875 5876 5876 5877 5878 5878 5879 5879 5879 5880 5880 5881 5881 5881 5882 5882 5882 5882 5883 5883 5883 5883 5883 5883 5883 5883 5883 5883 5883 5883 5882 5882 5882 5881 5881 5880 5880 5879 5879 5878 5878 5877 5877 5876 5875 5874 5873 5872 5871 5870 5868 5867 5866 5864 5863 5862 5860 5858 5857 5856 5854 5852 5850 5849 5847 5845 5843 5841 5839 5837 5835 5832 5830 5828 5826 5824 5822 5821 5819 5816 5814 5813 5811 5809
5873 5874 5874 5875 5876 5876 5877 5877 5878 5879 5879 5879 5880 5880 5880 5881 5881 5882 5882 5882 5882 5882 5883 5883 5883 5883 5883 5883 5883 5882 5882 5882 5882 5882 5882 5881 5881 5881 5880 5880 5879 5879 5878 5878 5877 5877 5876 5875 5874 5873 5872 5871 5870 5869 5868 5867 5865 5864 5862 5861 5859 5857 5856 5855 5853 5851 5849 5848 5846 5844 5842 5840 5838 5836 5834 5832 5830 5828 5826 5824 5822 5820 5818 5816 5814 5813 5811 5809
5873 5874 5875 5875 5876 5877 5877 5878 5878 5879 5879 5880 5880 5880 5881 5881 5882 5882 5882 5882 5882 5883 5883 5883 5883 5883 5883 5882 5882 5882 5882 5882 5882 5881 5881 5881 5880 5880 5879 5879 5878 5878 5878 5877 5877 5876 5875 5874 5874 5873 5872 5871 5870 5869 5867 5866 5864 5863 5861 5860 5858 5857 5855 5854 5853 5851 5849 5848 5846 5844 5842 5840 5838 5836 5834 5832 5830 5828 5826 5824 5822 5820 5818 5816 5814 5812 5811 5809
5874 5874 5875 5876 5876 5877 5878 5878 5879 5879 5879 5880 5880 5881 5881 5881 5882 5882 5882 5882 5882 5882 5882 5882 5882 5882 5882 5882 5882 5882 5882 5882 5881 5881 5880 5880 5879 5879 5878 5878 5877 5877 5877 5876 5876 5875 5874 5874 5873 5872 5871 5870 5869 5868 5867 5865 5864 5862 5860 5859 5857 5856 5855 5853 5852 5851 5849 5847 5845 5843 5841 5840 5838 5837 5835 5833 5830 5828 5826 5824 5822 5820 5818 5816 5814 5813 5811 5809
5874 5875 5875 5876 5876 5877 5878 5878 5879 5879 5879 5880 5880 5881 5881 5881 5882 5882 5882 5882 5882 5882 5882 5882 5882 5882 5882 5882 5882 5882 5881 5881 5880 5880 5879 5879 5878 5878 5877 5877 5877 5876 5876 5875 5874 5874 5873 5873 5872 5871 5870 5869 5868 5867 5865 5864 5863 5861 5859 5857 5856 5854 5853 5852 5851 5850 5848 5846 5844 5842 5841 5839 5838 5837 5835 5832 5830 5828 5826 5824 5822 5820 5818 5816 5815 5813 5811 5809
5874 5875 5875 5876 5876 5877 5877 5878 5878 5879 5879 5880 5880 5881 5881 5881 5881 5882 5882 5882 5882 5882 5882 5882 5882 5882 5882 5882 5881 5881 5881 5880 5880 5879 5878 5878 5877 5877 5876 5876 5876 5875 5874 5874 5873 5872 5872 5871 5871 5870 5869 5868 5867 5866 5864 5863 5861 5860 5858 5856 5854 5853 5851 5850 5849 5848 5847 5845 5844 5842 5840 5838 5837 5835 5834 5832 5829 5828 5826 5824 5822 5820 5818 5816 5814 5812 5810 5808
5874 5875 5875 5876 5876 5877 5877 5878 5878 5879 5879 5880 5880 5880 5881 5881 5881 5881 5881 5882 5882 5882 5882 5882 5882 5882 5881 5881 5881 5880 5880 5879 5879 5878 5877 5877 5876 5876 5875 5874 5874 5874 5873 5872 5872 5871 5870 5869 5869 5868 5867 5866 5865 5864 5863 5862 5860 5858 5857 5855 5853 5851 5850 5848 5847 5846 5845 5844 5842 5840 5839 5837 5835 5833 5832 5830 5828 5826 5824 5823 5821 5819 5817 5815 5813 5811 5809 5807
5874 5874 5875 5875 5876 5876 5877 5877 5878 5878 5879 5879 5880 5880 5880 5881 5881 5881 5881 5881 5881 5881 5881 5881 5881 5881 5881 5880 5880 5880 5879 5878 5878 5877 5876 5875 5875 5874 5873 5873 5872 5872 5871 5871 5870 5869 5868 5867 5867 5866 5865 5864 5864 5863 5862 5860 5859 5857 5855 5853 5852 5850 5848 5847 5845 5844 5843 5841 5840 5838 5837 5835 5833 5831 5830 5828 5826 5825 5823 5821 5820 5818 5816 5814 5812 5810 5808 5806
5874 5874 5874 5875 5875 5876 5876 5877 5877 5878 5878 5879 5879 5880 5880 5880 5880 5881 5881 5881 5881 5881 5881 5881 5881 5880 5880 5880 5879 5879 5878 5877 5876 5876 5875 5874 5873 5872 5871 5870 5870 5870 5869 5869 5868 5868 5867 5866 5865 5864 5864 5863 5862 5861 5860 5858 5857 5855 5854 5852 5850 5848 5847 5845 5844 5842 5840 5839 5837 5836 5834 5833 5831 5829 5828 5826 5824 5823 5821 5819 5817 5816 5814 5812 5810 5808 5806 5805
5873 5874 5874 5874 5875 5875 5876 5876 5877 5877 5878 5878 5879 5879 5879 5880 5880 5880 5880 5880 5880 5880 5880 5880 5880 5879 5879 5879 5878 5877 5877 5876 5875 5874 5873 5872 5871 5870 5870 5869 5868 5867 5867 5867 5866 5866 5865 5864 5863 5863 5862 5861 5860 5859 5858 5856 5855 5853 5852 5851 5849 5847 5846 5844 5842 5841 5839 5837 5835 5833 5832 5831 5830 5827 5825 5824 5822 5821 5819 5817 5815 5814 5812 5810 5808 5806 5805 5803
5872 5873 5873 5874 5874 5874 5875 5875 5876 5876 5877 5877 5877 5878 5878 5878 5879 5879 5879 5879 5879 5879 5879 5879 5878 5878 5878 5877 5877 5876 5875 5874 5873 5872 5871 5870 5870 5869 5868 5867 5866 5866 5865 5865 5865 5864 5864 5863 5862 5861 5860 5860 5859 5857 5856 5854 5853 5851 5850 5849 5848 5846 5844 5843 5841 5840 5838 5836 5833 5831 5829 5828 5827 5826 5823 5822 5820 5818 5817 5815 5813 5812 5810 5808 5806 5805 5803 5801
5871 5872 5872 5873 5873 5873 5874 5874 5875 5875 5876 5876 5876 5877 5877 5877 5877 5877 5877 5877 5877 5877 5877 5877 5877 5877 5876 5876 5875 5874 5873 5872 5872 5871 5869 5869 5868 5867 5867 5866 5865 5864 5864 5863 5863 5862 5862 5862 5861 5860 5859 5859 5858 5856 5855 5853 5851 5850 5848 5847 5846 5844 5842 5841 5839 5838 5836 5834 5832 5830 5828 5825 5823 5823 5821 5819 5818 5816 5814 5812 5811 5809 5807 5806 5804 5802 5800 5798
5870 5871 5871 5872 5872 5872 5873 5873 5873 5874 5874 5874 5875 5875 5875 5876 5876 5876 5876 5876 5876 5876 5875 5875 5875 5875 5874 5874 5873 5873 5872 5871 5870 5869 5868 5867 5866 5865 5865 5864 5863 5863 5862 5862 5861 5861 5860 5860 5860 5859 5858 5857 5856 5855 5854 5852 5850 5848 5846 5844 5843 5842 5840 5838 5837 5835 5834 5833 5831 5828 5827 5824 5821 5819 5818 5817 5815 5813 5811 5810 5808 5806 5805 5803 5801 5799 5797 5795
5869 5869 5870 5870 5871 5871 5871 5872 5872 5872 5873 5873 5873 5873 5874 5874 5874 5874 5874 5874 5874 5874 5874 5873 5873 5873 5873 5872 5871 5871 5870 5869 5868 5867 5866 5865 5864 5863 5863 5862 5862 5861 5861 5860 5860 5859 5859 5858 5857 5856 5855 5854 5853 5852 5851 5850 5849 5847 5844 5842 5841 5839 5838 5837 5835 5833 5831 5831 5829 5827 5825 5824 5821 5818 5816 5814 5812 5810 5808 5807 5805 5804 5802 5800 5798 5796 5794 5792
5867 5867 5868 5868 5869 5869 5870 5870 5870 5871 5871 5871 5872 5872 5872 5872 5872 5872 5872 5872 5872 5872 5871 5871 5871 5871 5870 5870 5869 5869 5868 5867 5866 5865 5864 5863 5862 5862 5861 5861 5860 5859 5859 5858 5858 5857 5857 5856 5855 5854 5852 5851 5850 5850 5849 5848 5847 5845 5842 5841 5839 5837 5836 5835 5833 5830 5829 5828 5826 5824 5823 5821 5819 5817 5814 5812 5810 5807 5805 5804 5802 5801 5799 5797 5795 5793 5791 5789
5865 5865 5866 5866 5867 5867 5868 5868 5868 5869 5869 5869 5870 5870 5870 5870 5870 5870 5870 5869 5869 5869 5869 5869 5869 5868 5868 5868 5867 5867 5866 5865 5865 5864 5863 5862 5861 5860 5859 5859 5858 5858 5857 5856 5855 5855 5854 5853 5852 5852 5850 5847 5846 5846 5846 5845 5844 5843 5840 5838 5837 5835 5833 5832 5830 5828 5826 5825 5823 5821 5820 5817 5816 5815 5812 5810 5808 5806 5803 5801 5799 5797 5795 5794 5792 5790 5788 5786
5862 5863 5864 5864 5864 5865 5865 5866 5866 5866 5867 5867 5867 5867 5868 5867 5867 5867 5867 5867 5867 5867 5867 5866 5866 5866 5865 5865 5865 5864 5864 5863 5862 5862 5861 5860 5859 5858 5857 5857 5856 5855 5855 5854 5853 5852 5851 5850 5850 5849 5849 5846 5843 5842 5842 5842 5842 5841 5838 5835 5834 5832 5830 5829 5827 5824 5823 5822 5820 5818 5816 5814 5812 5812 5810 5807 5805 5803 5801 5798 5795 5793 5791 5790 5788 5786 5784 5782
5860 5860 5861 5861 5862 5862 5863 5863 5863 5864 5864 5864 5864 5865 5865 5865 5865 5864 5864 5865 5864 5864 5864 5864 5863 5863 5863 5862 5862 5862 5861 5860 5860 5859 5858 5857 5857 5856 5855 5854 5854 5853 5852 5851 5850 5849 5848 5847 5847 5846 5847 5846 5842 5840 5839 5839 5838 5837 5835 5833 5831 5829 5828 5826 5824 5821 5819 5818 5817 5816 5814 5810 5808 5808 5806 5803 5802 5800 5798 5795 5792 5790 5787 5785 5784 5782 5780 5778
5856 5857 5858 5858 5859 5859 5860 5860 5860 5861 5861 5861 5861 5861 5862 5862 5862 5861 5861 5861 5861 5861 5861 5861 5860 5860 5860 5859 5859 5859 5858 5858 5857 5856 5856 5855 5854 5853 5852 5852 5851 5850 5849 5848 5848 5846 5845 5844 5843 5842 5843 5843 5841 5838 5837 5837 5836 5834 5832 5830 5828 5826 5825 5824 5822 5818 5815 5814 5813 5812 5810 5807 5805 5804 5802 5800 5798 5796 5794 5792 5789 5787 5784 5782 5780 5778 5776 5774